OneWeb SL0616

operational
NORAD ID: 55157 Int'l Des: 2023-004 Owner: ONEWEBN Country: UK Constellation: oneweb
LEOCIRCULARPOLARONEWEB_TYPE

OneWeb SL0616について

説明を読み込み中...

リアルタイム位置

3D地球を読み込み中...

次回通過

高度履歴

Altitude vs Time

uPlot chart will show altitude changes over time

軌道要素

1 55157U 23004T 26037.00125273 -.00000031 00000-0 -11292-3 0 9994
2 55157 87.9111 31.9258 0000886 79.4192 280.7039 13.17646729150421
Epoch: Feb 6, 2026 • Age: 10 hours

現在のステータス

高度 1200.4 km
速度 7.25 km/s
衛星直下点 -16.02°S, 76.12°W
打ち上げ日 Jan 10, 2023
運用期間 3 years
タイプ internet

技術仕様

分類 Payload
質量 148.00 kg
乾燥質量 140.00 kg
総質量 148.00 kg
長さ 1.30 m
直径 1.00 m
スパン 5.00 m
形状 Trapezoid+2 pan
製造者 ONEWUS
バスタイプ ARROW
フェーズステータス In Orbit
所有者/国 ONEWEBN/UK

大規模コンステレーション

Loading constellations...